NOAA 16 DEB, 41655

Orbit data source: Space-Track

NOAA 16 DEB, 41655 is space debris in SSO originally from a launch on Thu, 21 Sep 2000 UTC launched from the Air Force Western Test Range (AFWTR). Debris objects in space refer to the collection of defunct objects orbiting the Earth. Examples of debris include non-operational satellites, rocket bodies, and fragments generated from explosions, collisions, or faulty payload assembly.

Loading next visibility...
Identifier
41655, 2000-055NU
Orbit
SSO
Country
Flag of USUS
Related business
Manufacturer
Unknown
Mission
Spacecraft
Bus & Motor
Unknown
Mass
Unknown
Launch date (UTC)
2000-09-21 (26 years ago)
Launch vehicle
Unknown
Launch site
Air Force Western Test Range (AFWTR)
Object type
Payload
Rocket body
Debris
Shape & HBR
Unknown shape, 0.1 m
Radar Cross Section
Medium (>0.1 m² and <1 m²)

Expand to show TLE details & history
Last TLE update: 18 hours ago

TLE from 18 hours ago
0 NOAA 16 DEB
1 41655U 00055NU  26235.55713114  .00003384  00000-0  11233-2 0  9996
2 41655  98.7243 340.8362 0014774 291.7138  68.2475 14.38395654537034
Epoch: 2026-08-23T13:22Z
TLE epoch observation values (Epoch: 2026-08-23T13:22:16.130Z)
Latitude
-0.00007°
Longitude
168.41752°
Altitude
762.846 km
Speed
7.475 km/s
True Right ascension
22h 43m 20s
True Declination
0° 00' 00"
Sunlit
Object was in full shadow at epoch
Visualization orbit readout
Latitude
Unknown
Longitude
Unknown
Altitude
Unknown
Speed
Unknown
Apparent Right ascension
Unknown
Apparent Declination
Unknown
Sunlit
N/A
Visualization observer readout
Local Sidereal Time
22:45:56
Azimuth
Unknown
Elevation
Unknown
Doppler factor
Unknown
Orbital elements
Apogee altitude
771.486 km
Perigee altitude
750.392 km
Semi-major axis
7,139.076 km
Eccentricity
0.00148
Inclination
98.7243°
RAAN
340.8362°
Arg. of periapsis
291.7138°
True anomaly
68.40485°
Mean anomaly
68.2475°
Eccentric anomaly
68.32616°
Mean motion
3.59816 °/min
Orbital period
100.05 mins
BSTAR
0.0011233
Loading maneuver chart data...
Computing Atmospheric mass density...
Loading historical data...
Loading historical data...
Loading historical data...
Loading historical data...
Loading historical data...
Loading historical data...
Loading historical data...

Documentation

Showing up to 5 results
|